Location: ??????
(55.7522°N, 37.6156°E)
Time: 18:03:13
(UTC+00:00)

IRIDIUM 106 - Pass Details

Date: 14 June 2025
Orbit: 776 x 779 km, 86.4° (Epoch: 13 July)

Event Time Altitude Azimuth Distance (km) Brightness Sun altitude
Exits shadow 20:11:22 11° 178° (S) 2,292 6.1 -9.2°
Maximum altitude 20:16:29 79° 92° (E) 800 4.4 -9.4°
Drops below altitude 10° 20:21:44 10° 7° (N) 2,345 8.0 -9.6°
Sets 20:24:06 0° 6° (N) 3,277 9.0 -9.7°
